TimeHST,TemperatureF,Dew PointF,Humidity,Sea Level PressureIn,VisibilityMPH,Wind Direction,Wind SpeedMPH,Gust SpeedMPH,PrecipitationIn,Events,Conditions,WindDirDegrees,DateUTC
12:53 AM,77.0,66.9,71,29.96,10.0,ENE,6.9,-,N/A,,Partly Cloudy,70,2013-08-30 10:53:00
1:53 AM,75.9,66.9,74,29.95,10.0,East,8.1,-,N/A,,Partly Cloudy,80,2013-08-30 11:53:00
2:53 AM,75.0,66.9,76,29.94,10.0,Calm,Calm,-,N/A,,Partly Cloudy,0,2013-08-30 12:53:00
3:53 AM,73.9,66.9,79,29.94,10.0,NW,3.5,-,N/A,,Partly Cloudy,310,2013-08-30 13:53:00
4:53 AM,73.0,66.0,79,29.95,10.0,Calm,Calm,-,N/A,,Partly Cloudy,0,2013-08-30 14:53:00
5:53 AM,73.0,66.9,81,29.96,10.0,NE,4.6,-,N/A,,Partly Cloudy,40,2013-08-30 15:53:00
6:53 AM,75.9,66.9,74,29.98,10.0,ENE,8.1,-,N/A,,Scattered Clouds,70,2013-08-30 16:53:00
7:53 AM,79.0,66.9,66,29.99,10.0,East,8.1,-,N/A,,Scattered Clouds,80,2013-08-30 17:53:00
8:53 AM,81.0,64.9,58,30.00,10.0,East,9.2,-,N/A,,Scattered Clouds,80,2013-08-30 18:53:00
9:53 AM,84.0,63.0,49,30.01,10.0,East,10.4,-,N/A,,Scattered Clouds,90,2013-08-30 19:53:00
10:53 AM,86.0,64.0,48,30.01,10.0,NE,11.5,-,N/A,,Scattered Clouds,50,2013-08-30 20:53:00
11:53 AM,88.0,62.1,42,30.00,10.0,NE,13.8,19.6,N/A,,Scattered Clouds,40,2013-08-30 21:53:00
12:53 PM,87.1,59.0,39,29.98,10.0,ENE,17.3,21.9,N/A,,Scattered Clouds,60,2013-08-30 22:53:00
1:53 PM,87.1,61.0,41,29.97,10.0,ENE,13.8,21.9,N/A,,Scattered Clouds,70,2013-08-30 23:53:00
2:53 PM,87.1,62.1,43,29.95,10.0,NE,12.7,18.4,N/A,,Scattered Clouds,50,2013-08-31 00:53:00
3:53 PM,86.0,63.0,46,29.95,10.0,ENE,13.8,24.2,N/A,,Scattered Clouds,70,2013-08-31 01:53:00
4:53 PM,84.9,64.0,49,29.96,10.0,East,16.1,-,N/A,,Scattered Clouds,80,2013-08-31 02:53:00
5:53 PM,81.0,64.0,56,29.98,10.0,ENE,12.7,-,N/A,,Scattered Clouds,60,2013-08-31 03:53:00
6:53 PM,80.1,66.0,62,30.00,10.0,ENE,10.4,-,N/A,,Scattered Clouds,60,2013-08-31 04:53:00
7:53 PM,79.0,66.0,64,30.01,10.0,ENE,12.7,-,N/A,,Partly Cloudy,60,2013-08-31 05:53:00
8:53 PM,79.0,66.0,64,30.03,10.0,East,10.4,-,N/A,,Scattered Clouds,80,2013-08-31 06:53:00
9:53 PM,78.1,66.9,68,30.04,10.0,NNE,3.5,-,N/A,,Scattered Clouds,20,2013-08-31 07:53:00
10:53 PM,77.0,69.1,76,30.04,10.0,Calm,Calm,-,0.00,,Mostly Cloudy,0,2013-08-31 08:53:00
11:53 PM,77.0,68.0,74,30.04,10.0,NE,6.9,-,N/A,,Overcast,40,2013-08-31 09:53:00